[[{"header":{"parameterUnit":"m.s-1","parameterCategory":1,"la1":30.2991,"la2":30.254,"lo1":-89.0895,"lo2":-89.0444,"dy":0.0017,"dx":0.0017,"nx":28,"ny":28,"refTime":"2024-04-03T03:00:00:Z","depth":0,"parameterNumber":2,"parameterNumberName":"U-component_of_WINDS"},"data":[0,0,0,0,0,0,0,0,0,0,0,0,0,0,0,0,0,0,0,0,0,0,0,0,0,0,0,0,0,0,0,0,0,0,0,0,0,0,0,0,0,0,0,0,0,0,0,0,0,0,0,0,0,0,0,0,0,0,5.2775,5.2777,0,5.2907,5.2908,5.291,5.2871,5.2869,5.2866,5.2863,5.2997,5.3003,5.3009,0,0,0,0,0,0,0,0,0,0,0,0,0,5.2491,5.2496,5.2775,5.2777,5.2778,5.2906,5.2908,5.291,5.2872,5.2869,5.2865,5.2862,5.2995,5.3002,5.3009,0,0,0,0,0,0,0,0,0,0,0,0,0,5.2617,5.2498,5.2775,5.2775,5.2776,5.2906,5.2908,5.2911,5.2873,5.2868,5.2864,5.2861,5.2992,5.3001,5.301,5.3148,0,0,5.3038,5.3042,0,0,0,0,0,0,0,0,5.261,5.2628,5.2773,5.2775,5.2777,5.2868,5.2857,5.299,5.2874,5.2836,5.2863,5.2859,5.2957,5.2969,5.3003,5.3154,5.316,5.3039,5.3045,5.3048,5.3051,0,0,0,0,0,0,0,5.2602,5.2622,5.2827,5.2775,5.2778,5.2768,5.2782,5.2882,5.2918,5.2839,5.2836,5.2853,5.2957,5.2994,5.3005,5.3162,5.3039,5.3047,5.3052,5.3056,5.3434,5.3438,0,0,0,0,0,0,5.2592,5.2615,5.2823,5.2831,5.2682,5.2777,5.2792,5.2843,5.2917,5.2924,5.2856,5.285,5.298,5.2995,5.301,5.3176,5.3048,5.3057,5.3062,5.3429,5.3435,5.344,0,0,0,0,0,0,5.2586,5.261,5.2818,5.2722,5.2748,5.2786,5.2844,5.2848,5.2884,5.2929,5.2936,5.2887,5.2978,5.2997,5.3114,5.318,5.3061,5.3069,5.3424,5.3431,5.3437,5.3509,0,0,0,0,0,0,5.2578,5.2609,5.2661,5.2724,5.2753,5.292,5.2848,5.2853,5.29,5.2894,5.296,5.2967,5.2976,5.3101,5.3123,5.3191,5.3076,5.3418,5.3427,5.3435,5.3501,5.3518,5.3532,0,0,0,0,0,5.2568,5.2676,5.2664,5.2689,5.282,5.2924,5.294,5.2949,5.2906,5.2959,5.2988,5.2965,5.317,5.3113,5.3138,5.3209,5.3414,5.3425,5.3434,5.3494,5.3515,5.3532,0,0,0,0,0,0,5.2619,5.2684,5.2671,5.2803,5.2858,5.2917,5.2984,5.297,5.3038,5.303,5.3038,5.3053,5.3173,5.3203,5.3139,5.3347,5.3285,5.3301,5.3322,5.3342,5.3357,5.3347,5.3084,0,0,0,0,0,5.2646,5.2725,5.2777,5.2888,5.2917,5.2946,5.2991,5.2994,5.3051,5.3074,5.3111,5.3168,5.3245,5.3295,5.3369,5.3506,5.352,5.3567,5.3583,5.3595,5.3608,5.3684,5.3705,5.3474,5.3473,5.3473,0,0,5.2701,5.2747,5.2796,5.29,5.2943,5.3024,5.2966,5.3054,5.3115,5.3087,5.32,5.323,5.3293,5.3421,5.3479,5.345,5.3676,5.3608,5.3618,5.3624,5.3696,5.3718,5.3738,5.3481,5.3479,5.3478,0,0,5.2844,5.2887,5.2984,5.3029,5.3095,5.3114,5.3138,5.3199,5.3218,5.3332,5.3313,5.3385,5.3518,5.3564,5.3605,5.3768,5.3749,5.3792,5.3871,5.3945,5.3963,5.3979,5.4037,5.4058,5.3805,5.3805,5.3805,0,5.2905,5.3027,5.3036,5.3127,5.3173,5.3153,5.3252,5.3295,5.3381,5.3414,5.338,5.3547,5.3588,5.3726,5.3766,5.38,5.3827,5.3783,5.396,5.3976,5.3991,5.4046,5.4068,5.381,5.3809,5.3809,5.3808,0,5.3099,5.3184,5.3255,5.334,5.3394,5.3489,5.3512,5.3566,5.3564,5.3587,5.3704,5.3753,5.3836,5.3869,5.3868,5.4009,5.3988,5.3957,5.3895,5.4018,5.407,5.4091,5.3816,5.3815,5.3813,5.3812,0,0,5.3275,5.3366,5.3391,5.343,5.3503,5.3569,5.3663,5.3745,5.3791,5.3852,5.3931,5.4045,5.4017,5.4063,5.4068,5.4132,5.4258,5.4093,5.4095,5.4122,5.4416,5.4438,5.4462,5.4247,5.4251,5.4254,5.441,0,5.3424,5.359,5.3601,5.375,5.383,5.3813,5.3895,5.3948,5.3972,5.4043,5.407,5.415,5.4108,5.4136,5.4199,5.4229,5.4317,5.4218,5.4319,5.4323,5.4303,5.4489,5.4512,5.4657,5.443,5.4434,5.4436,0,5.3619,5.3687,5.3845,5.3907,5.3941,5.4014,5.4091,5.4159,5.4219,5.4233,5.4286,5.4281,5.4378,5.4314,5.4447,5.438,5.4423,5.4444,5.445,5.4458,5.4386,5.4502,5.4704,5.4725,5.4469,5.4466,5.4464,0,5.3732,5.3863,5.3974,5.4008,5.4084,5.4136,5.417,5.4226,5.4275,5.4343,5.4375,5.4452,5.4495,5.4555,5.4572,5.4524,5.4705,5.4642,5.4718,5.4718,5.4755,5.4752,5.4966,5.4785,5.4784,5.4784,5.4784,0,5.3896,5.3993,5.4026,5.4094,5.4203,5.4215,5.4322,5.4353,5.4404,5.4478,5.4468,5.4538,5.4556,5.463,5.4644,5.4752,5.4771,5.4784,5.4787,5.4785,5.4783,5.4811,5.4801,5.479,5.4789,5.4787,5.4786,0,5.404,5.4066,5.4186,5.4248,5.4266,5.4343,5.4396,5.4462,5.4486,5.458,5.4603,5.464,5.4726,5.4749,5.4852,5.4861,5.4988,5.4982,5.4968,5.4967,5.5041,5.5034,5.5279,5.5312,5.5111,5.5113,5.5114,0,5.4142,5.4216,5.4287,5.4336,5.4373,5.4452,5.4502,5.4519,5.4571,5.4647,5.4704,5.4789,5.4857,5.4995,5.5031,5.511,5.5105,5.5185,5.5116,5.5112,5.5105,5.51,5.5107,5.5198,5.52,5.5202,5.5203,0,5.4321,5.4331,5.4404,5.4482,5.4543,5.4605,5.4665,5.4706,5.473,5.479,5.4878,5.4932,5.5037,5.5121,5.5201,5.5236,5.5224,5.5225,5.5247,5.5244,5.5233,5.5239,5.5002,5.5219,5.5217,5.5216,5.5215,5.5215,5.4447,5.4512,5.4572,5.4654,5.4701,5.4758,5.4823,5.4856,5.4929,5.5017,5.5022,5.5117,5.5177,5.5283,5.5323,5.5398,5.5373,5.5405,5.5413,5.542,5.5426,5.5222,5.5413,5.5412,5.5412,5.5411,5.5411,0,5.4624,5.4663,5.4738,5.4823,5.4888,5.4872,5.4938,5.4993,5.5077,5.5134,5.5202,5.5304,5.5386,5.5429,5.5511,5.5563,5.5559,5.5584,5.5579,5.5587,5.5443,5.5416,5.5585,5.5585,5.5585,5.5585,5.5585,5.5585,5.4724,5.4834,5.4851,5.4985,5.5022,5.5116,5.5155,5.5207,5.5253,5.5367,5.5435,5.5463,5.5515,5.5601,5.5676,5.5686,5.5716,5.5744,5.5751,5.5615,5.5597,5.558,5.5555,5.575,5.5751,5.5889,5.589,5.5891]},{"header":{"parameterUnit":"m.s-1","parameterCategory":1,"la1":30.2991,"la2":30.254,"lo1":-89.0895,"lo2":-89.0444,"dy":0.0017,"dx":0.0017,"nx":28,"ny":28,"refTime":"2024-04-03T03:00:00:Z","depth":0,"parameterNumber":3,"parameterNumberName":"V-component_of_WINDS"},"data":[0,0,0,0,0,0,0,0,0,0,0,0,0,0,0,0,0,0,0,0,0,0,0,0,0,0,0,0,0,0,0,0,0,0,0,0,0,0,0,0,0,0,0,0,0,0,0,0,0,0,0,0,0,0,0,0,0,0,-1.9178,-1.9178,0,-1.9236,-1.9237,-1.9238,-1.9271,-1.9271,-1.9271,-1.9271,-1.9327,-1.9329,-1.933,0,0,0,0,0,0,0,0,0,0,0,0,0,-1.9091,-1.9093,-1.9178,-1.9178,-1.9179,-1.9236,-1.9237,-1.9238,-1.9271,-1.9271,-1.9271,-1.9271,-1.9327,-1.9329,-1.933,0,0,0,0,0,0,0,0,0,0,0,0,0,-1.9137,-1.9093,-1.9178,-1.9203,-1.9205,-1.9236,-1.9237,-1.9238,-1.9271,-1.9271,-1.9271,-1.9271,-1.9326,-1.9328,-1.9331,-1.934,0,0,-1.9337,-1.9338,0,0,0,0,0,0,0,0,-1.9134,-1.914,-1.9198,-1.9201,-1.9204,-1.9247,-1.9227,-1.9272,-1.9271,-1.9246,-1.9271,-1.9271,-1.93,-1.9304,-1.9315,-1.9343,-1.9345,-1.9337,-1.9338,-1.9339,-1.934,0,0,0,0,0,0,0,-1.9131,-1.9138,-1.9201,-1.9199,-1.9203,-1.921,-1.9217,-1.9236,-1.9271,-1.9248,-1.925,-1.9257,-1.9302,-1.9313,-1.9316,-1.9346,-1.9337,-1.9339,-1.934,-1.9341,-1.9384,-1.9384,0,0,0,0,0,0,-1.9124,-1.9135,-1.9199,-1.9203,-1.9169,-1.9211,-1.9219,-1.9233,-1.9271,-1.9277,-1.9257,-1.9258,-1.9309,-1.9314,-1.9319,-1.9332,-1.9339,-1.9341,-1.9342,-1.9384,-1.9384,-1.9384,0,0,0,0,0,0,-1.9122,-1.913,-1.9197,-1.917,-1.9179,-1.9213,-1.9228,-1.9234,-1.9245,-1.9278,-1.9284,-1.9262,-1.9309,-1.9316,-1.9335,-1.9335,-1.9342,-1.9344,-1.9384,-1.9384,-1.9384,-1.9359,0,0,0,0,0,0,-1.912,-1.9129,-1.9134,-1.9169,-1.918,-1.9213,-1.9228,-1.9235,-1.9249,-1.9251,-1.9284,-1.929,-1.931,-1.9331,-1.9337,-1.9338,-1.9346,-1.9385,-1.9384,-1.9384,-1.936,-1.9358,-1.9357,0,0,0,0,0,-1.9117,-1.9123,-1.9134,-1.9141,-1.9187,-1.9213,-1.9218,-1.9243,-1.9249,-1.9253,-1.9274,-1.9289,-1.9334,-1.9333,-1.9339,-1.9341,-1.9385,-1.9384,-1.9384,-1.9361,-1.9359,-1.9357,0,0,0,0,0,0,-1.9085,-1.9129,-1.914,-1.9159,-1.9182,-1.9218,-1.9224,-1.9239,-1.926,-1.9261,-1.929,-1.9297,-1.9313,-1.9329,-1.9327,-1.9352,-1.9361,-1.9362,-1.9341,-1.9339,-1.9337,-1.9333,-1.9347,0,0,0,0,0,-1.9081,-1.9099,-1.9136,-1.9149,-1.916,-1.919,-1.9202,-1.9219,-1.9243,-1.9253,-1.9276,-1.9298,-1.9317,-1.9329,-1.9348,-1.9363,-1.937,-1.9367,-1.9365,-1.9363,-1.9364,-1.9373,-1.9371,-1.9383,-1.9383,-1.9383,0,0,-1.9071,-1.9097,-1.9107,-1.9143,-1.9163,-1.918,-1.9198,-1.9216,-1.9229,-1.9255,-1.9275,-1.9292,-1.9319,-1.9336,-1.9344,-1.9349,-1.9362,-1.9363,-1.9362,-1.9363,-1.9372,-1.9371,-1.937,-1.9383,-1.9383,-1.9383,0,0,-1.9063,-1.9085,-1.9098,-1.9118,-1.9148,-1.9168,-1.9171,-1.9205,-1.9218,-1.9239,-1.9259,-1.9274,-1.9307,-1.9325,-1.9339,-1.9338,-1.9351,-1.9343,-1.9333,-1.9341,-1.9341,-1.934,-1.9339,-1.9339,-1.9343,-1.9343,-1.9343,0,-1.9047,-1.9075,-1.9102,-1.912,-1.9135,-1.9161,-1.9174,-1.9191,-1.9226,-1.9235,-1.9241,-1.9283,-1.9302,-1.9324,-1.9324,-1.9334,-1.9338,-1.9339,-1.9339,-1.9338,-1.9338,-1.9338,-1.9337,-1.9342,-1.9342,-1.9342,-1.9342,0,-1.9054,-1.9073,-1.908,-1.9114,-1.913,-1.9145,-1.9174,-1.9186,-1.9202,-1.9221,-1.9241,-1.9266,-1.9291,-1.9298,-1.9312,-1.9321,-1.9324,-1.9334,-1.9343,-1.9335,-1.9335,-1.9335,-1.934,-1.9341,-1.9341,-1.9341,0,0,-1.9026,-1.9076,-1.9078,-1.9094,-1.913,-1.9145,-1.916,-1.9186,-1.9196,-1.9219,-1.9233,-1.926,-1.927,-1.9285,-1.9302,-1.9309,-1.9307,-1.9319,-1.932,-1.9315,-1.9318,-1.931,-1.9309,-1.9317,-1.9317,-1.9317,-1.9315,0,-1.9023,-1.9054,-1.9079,-1.91,-1.9118,-1.9144,-1.9158,-1.918,-1.9199,-1.9216,-1.9236,-1.9255,-1.9267,-1.9276,-1.9284,-1.9305,-1.9308,-1.9306,-1.9328,-1.9329,-1.9321,-1.9309,-1.9301,-1.9298,-1.9316,-1.9316,-1.9316,0,-1.9022,-1.9046,-1.9069,-1.9103,-1.9112,-1.9124,-1.915,-1.9166,-1.9192,-1.9205,-1.9223,-1.9241,-1.9258,-1.9266,-1.9289,-1.9288,-1.9298,-1.931,-1.9311,-1.9313,-1.9321,-1.9311,-1.9298,-1.9297,-1.9316,-1.9316,-1.9316,0,-1.9,-1.9037,-1.9056,-1.9069,-1.9109,-1.9117,-1.9134,-1.916,-1.9174,-1.9196,-1.9206,-1.9229,-1.9242,-1.9259,-1.9282,-1.9286,-1.9303,-1.9313,-1.9314,-1.9313,-1.9316,-1.9315,-1.9304,-1.9323,-1.9323,-1.9323,-1.9323,0,-1.8993,-1.9006,-1.9046,-1.9058,-1.9073,-1.9102,-1.9116,-1.9135,-1.9158,-1.9173,-1.9196,-1.921,-1.924,-1.9257,-1.9276,-1.9292,-1.9298,-1.9308,-1.9313,-1.9306,-1.9304,-1.9313,-1.9313,-1.9323,-1.9323,-1.9323,-1.9323,0,-1.8969,-1.8997,-1.9019,-1.9056,-1.9066,-1.9075,-1.9106,-1.9118,-1.9138,-1.9157,-1.9163,-1.9194,-1.9215,-1.9241,-1.927,-1.9282,-1.9297,-1.9304,-1.9288,-1.9291,-1.929,-1.9289,-1.9283,-1.9283,-1.9303,-1.9303,-1.9303,0,-1.8963,-1.8974,-1.9012,-1.9024,-1.9041,-1.9061,-1.9075,-1.9104,-1.9118,-1.9149,-1.9157,-1.918,-1.92,-1.9232,-1.9257,-1.9279,-1.9287,-1.9283,-1.929,-1.9283,-1.9286,-1.9285,-1.9286,-1.9281,-1.9281,-1.928,-1.928,0,-1.8948,-1.8961,-1.8982,-1.9008,-1.9026,-1.9047,-1.907,-1.9078,-1.9111,-1.9126,-1.9148,-1.9164,-1.9194,-1.9217,-1.9242,-1.9259,-1.9274,-1.9278,-1.9279,-1.9272,-1.9262,-1.9267,-1.9283,-1.9278,-1.9278,-1.9278,-1.9278,-1.9278,-1.8932,-1.8943,-1.8972,-1.8995,-1.9015,-1.9036,-1.9049,-1.9071,-1.9091,-1.9119,-1.9134,-1.9156,-1.9182,-1.9219,-1.9235,-1.9251,-1.9257,-1.9259,-1.9259,-1.9259,-1.9257,-1.926,-1.9256,-1.9256,-1.9256,-1.9256,-1.9257,0,-1.8918,-1.8938,-1.8959,-1.899,-1.9008,-1.9024,-1.9049,-1.9063,-1.9082,-1.9106,-1.9125,-1.9151,-1.9173,-1.92,-1.9224,-1.9232,-1.924,-1.9237,-1.9237,-1.924,-1.9251,-1.9247,-1.9231,-1.9231,-1.9231,-1.9231,-1.9231,-1.9231,-1.8913,-1.8932,-1.8949,-1.8979,-1.8999,-1.9021,-1.9035,-1.9054,-1.9073,-1.9101,-1.912,-1.9138,-1.9163,-1.9189,-1.9209,-1.9217,-1.9224,-1.9219,-1.9228,-1.9237,-1.9239,-1.9241,-1.9238,-1.922,-1.922,-1.9216,-1.9216,-1.9216]}]]